KG4S Weather Reports


Display with metric or nautical units.
time (UTC)temp
F
wind
direction
speed
MPH
gust
MPH
rain 1hr
in
rain 24hr
in
rain mn
in
humidity
%
barometer
mb
20260903051459 0 0.0 0.0 0.00 0.00 0.00 1018.3
20260903050939 0 0.0 0.0 0.00 0.00 0.00 1018.1
20260903050439 0 0.0 0.0 0.00 0.00 0.00 1018.0
20260903050000 0 0.0 0.0 0.00 0.00 0.00 1018.0
20260903045439 0 0.0 0.0 0.00 0.00 0.00 1018.1
20260903044938 0 0.0 0.0 0.00 0.00 0.00 1018.2
20260903044438 0 0.0 0.0 0.00 0.00 0.00 1018.0
20260903043939 0 0.0 0.0 0.00 0.00 0.00 1018.1
20260903043458 0 0.0 0.0 0.00 0.00 0.00 1018.0
20260903042959 0 0.0 0.0 0.00 0.00 0.00 1018.1
20260903042439 0 0.0 0.0 0.00 0.00 0.00 1018.1
20260903041939 0 0.0 0.0 0.00 0.00 0.00 1018.0
20260903041439 0 0.0 0.0 0.00 0.00 0.00 1018.1
20260903040959 0 0.0 0.0 0.00 0.00 0.00 1018.0
20260903040439 74 0.0 0.0 0.00 0.00 0.00 93 1018.3
20260903035939 74 0.0 0.0 0.00 0.00 0.00 93 1018.1
20260903035438 0 0.0 0.0 0.00 0.00 0.00 1018.2
20260903034939 74 0.0 0.0 0.00 0.00 0.00 93 1018.3
20260903034438 74 0.0 0.0 0.00 0.00 0.00 93 1018.1
20260903033939 74 0.0 0.0 0.00 0.00 0.00 93 1018.2
20260903033439 74 0.0 0.0 0.00 0.00 0.00 94 1018.3
20260903032939 74 0.0 0.0 0.00 0.00 0.00 94 1018.1
20260903032459 74 0.0 0.0 0.00 0.00 0.00 94 1018.3
20260903031939 74 0.0 0.0 0.00 0.00 0.00 94 1018.1
20260903031439 74 0.0 0.0 0.00 0.00 0.00 94 1018.4
20260903030959 74 0.0 0.0 0.00 0.00 0.00 94 1018.4
20260903030439 75 0.0 0.0 0.00 0.00 0.00 94 1018.3
20260903025939 75 0.0 0.0 0.00 0.00 0.00 94 1018.5
20260903025439 75 0.0 0.0 0.00 0.00 0.00 94 1018.4
20260903024940 75 0.0 0.0 0.00 0.00 0.00 94 1018.4
20260903024459 75 0.0 0.0 0.00 0.00 0.00 94 1018.3
20260903023939 75 0.0 0.0 0.00 0.00 0.00 93 1018.4
20260903023439 75 0.0 0.0 0.00 0.00 0.00 93 1018.3
20260903022939 76 0.0 0.0 0.00 0.00 0.00 93 1018.5
20260903022439 76 0.0 0.0 0.00 0.00 0.00 93 1018.5
20260903021958 76 0.0 0.0 0.00 0.00 0.00 93 1018.4
20260903021459 76 0.0 0.0 0.00 0.00 0.00 93 1018.6
20260903020938 76 0.0 0.0 0.00 0.00 0.00 92 1018.5
20260903020459 76 0.0 0.0 0.00 0.00 0.00 92 1018.5
20260903015938 76 0.0 0.0 0.00 0.00 0.00 92 1018.4
20260903015438 77 0.0 0.0 0.00 0.00 0.00 92 1018.4
20260903014958 77 0.0 0.0 0.00 0.00 0.00 91 1018.2
20260903014438 77 0.0 0.0 0.00 0.00 0.00 91 1018.3
20260903013939 77 0.0 0.0 0.00 0.00 0.00 90 1018.3
20260903013438 78 0.0 0.0 0.00 0.00 0.00 90 1018.1
20260903012939 78 0.0 0.0 0.00 0.00 0.00 90 1018.3
20260903012459 78 0.0 0.0 0.00 0.00 0.00 89 1018.3
20260903011938 78 0.0 0.0 0.00 0.00 0.00 89 1018.0
20260903011439 79 0.0 0.0 0.00 0.00 0.00 89 1018.0
20260903010938 79 0.0 0.0 0.00 0.00 0.00 88 1017.9
20260903010438 80 0.0 0.0 0.00 0.00 0.00 86 1018.0
20260903005938 80 0.0 0.0 0.00 0.00 0.00 85 1017.8
20260903005439 80 0.0 0.0 0.00 0.00 0.00 85 1017.8
20260903004938 81 0.0 0.0 0.00 0.00 0.00 84 1017.7
20260903004438 81 0.0 0.0 0.00 0.00 0.00 83 1017.8
20260903003958 81 0.0 0.0 0.00 0.00 0.00 81 1017.7
20260903003438 82 0.0 0.0 0.00 0.00 0.00 79 1017.7
20260903002939 83 0.0 0.0 0.00 0.00 0.00 78 1017.6
20260903002459 83 0.0 0.0 0.00 0.00 0.00 75 1017.6
20260903001938 84 0.0 0.0 0.00 0.00 0.00 70 1017.6
20260903001438 84 0.0 0.0 0.00 0.00 0.00 68 1017.6
20260903000939 85 0.0 0.0 0.00 0.00 0.00 67 1017.6
20260903000439 87 0.0 0.0 0.00 0.00 0.00 63 1017.6
20260902235939 88 0.0 0.0 0.00 0.00 0.00 62 1017.7
20260902235439 89 0.0 0.0 0.00 0.00 0.00 65 1017.6
20260902234939 90 0.0 0.0 0.00 0.00 0.00 59 1017.6
20260902234439 91 0.0 0.0 0.00 0.00 0.00 55 1017.6
20260902233939 92 0.0 0.0 0.00 0.00 0.00 52 1017.6
20260902233439 93 0.0 0.0 0.00 0.00 0.00 52 1017.8
20260902232939 93 0.0 0.0 0.00 0.00 0.00 52 1017.8
20260902232439 93 0.0 0.0 0.00 0.00 0.00 53 1017.8
20260902231939 94 0.0 0.0 0.00 0.00 0.00 52 1017.9
20260902231459 93 0.0 0.0 0.00 0.00 0.00 53 1017.9
20260902230959 92 0.0 0.0 0.00 0.00 0.00 55 1017.9
20260902230439 93 0.0 0.0 0.00 0.00 0.00 53 1017.7
20260902225939 94 0.0 0.0 0.00 0.00 0.00 51 1018.0
20260902225439 94 0.0 0.0 0.00 0.00 0.00 48 1018.0
20260902224939 94 0.0 1.0 0.00 0.00 0.00 49 1017.9
20260902224438 93 0.0 1.0 0.00 0.00 0.00 48 1017.9
20260902223939 94 0.0 2.0 0.00 0.00 0.00 47 1017.9
20260902223439 94 0.0 0.0 0.00 0.00 0.00 48 1017.9
20260902222939 94 0.0 1.0 0.00 0.00 0.00 47 1017.9
20260902222439 94 0.0 0.0 0.00 0.00 0.00 45 1018.0
20260902221938 94 209 1.0 2.0 0.00 0.00 0.00 46 1018.1
20260902221439 94 0.0 0.0 0.00 0.00 0.00 47 1018.0
20260902220938 93 0.0 1.0 0.00 0.00 0.00 46 1018.0
20260902220439 94 0.0 1.0 0.00 0.00 0.00 45 1018.1
20260902215938 93 0.0 2.0 0.00 0.00 0.00 46 1018.1
20260902215438 93 155 1.0 2.0 0.00 0.00 0.00 45 1018.2
20260902214938 93 203 2.0 3.0 0.00 0.00 0.00 46 1018.1
20260902214439 94 244 1.0 2.0 0.00 0.00 0.00 46 1018.0
20260902213938 95 150 1.0 2.0 0.00 0.00 0.00 46 1018.0
20260902213439 94 6 2.0 3.0 0.00 0.00 0.00 46 1018.2
20260902212939 94 193 1.0 3.0 0.00 0.00 0.00 46 1018.1
20260902212459 95 0.0 2.0 0.00 0.00 0.00 45 1018.1
20260902211938 94 185 1.0 1.0 0.00 0.00 0.00 46 1018.1
20260902211439 94 74 1.0 2.0 0.00 0.00 0.00 45 1018.2
20260902210939 94 254 1.0 2.0 0.00 0.00 0.00 46 1018.3
20260902210438 93 263 1.0 3.0 0.00 0.00 0.00 48 1018.3
20260902205939 93 222 1.0 3.0 0.00 0.00 0.00 48 1018.3
20260902205458 93 242 1.0 5.0 0.00 0.00 0.00 47 1018.3
20260902204939 93 214 2.0 4.0 0.00 0.00 0.00 47 1018.4
20260902204439 95 265 1.0 4.0 0.00 0.00 0.00 46 1018.3
20260902203958 94 339 2.0 3.0 0.00 0.00 0.00 46 1018.3
20260902203438 94 277 2.0 5.0 0.00 0.00 0.00 45 1018.4
20260902202938 95 309 1.0 2.0 0.00 0.00 0.00 46 1018.4
20260902202438 95 0.0 2.0 0.00 0.00 0.00 45 1018.5
20260902201959 95 118 1.0 2.0 0.00 0.00 0.00 46 1018.4
20260902201438 95 63 1.0 2.0 0.00 0.00 0.00 45 1018.5
20260902200938 94 21 1.0 3.0 0.00 0.00 0.00 46 1018.5
20260902200439 93 355 1.0 2.0 0.00 0.00 0.00 47 1018.6
20260902195958 93 250 2.0 4.0 0.00 0.00 0.00 47 1018.8
20260902195458 94 210 2.0 3.0 0.00 0.00 0.00 47 1018.9
20260902194938 94 207 1.0 2.0 0.00 0.00 0.00 48 1018.9
20260902194438 93 278 2.0 3.0 0.00 0.00 0.00 49 1018.9
20260902193938 92 219 1.0 2.0 0.00 0.00 0.00 51 1019.0
20260902193439 92 177 1.0 3.0 0.00 0.00 0.00 50 1019.0
20260902192959 93 202 2.0 4.0 0.00 0.00 0.00 50 1019.2
20260902192439 92 290 2.0 5.0 0.00 0.00 0.00 50 1019.2
20260902191938 93 216 3.0 3.0 0.00 0.00 0.00 50 1019.1
20260902191440 93 252 1.0 4.0 0.00 0.00 0.00 48 1019.2
20260902190938 92 253 1.0 2.0 0.00 0.00 0.00 48 1019.2
20260902190439 92 276 1.0 4.0 0.00 0.00 0.00 49 1019.2
20260902185939 93 153 1.0 2.0 0.00 0.00 0.00 47 1019.3
20260902185458 93 14 1.0 2.0 0.00 0.00 0.00 49 1019.5
20260902184958 92 64 2.0 4.0 0.00 0.00 0.00 50 1019.4
20260902184438 92 0.0 2.0 0.00 0.00 0.00 49 1019.5
20260902183938 92 81 1.0 2.0 0.00 0.00 0.00 50 1019.5
20260902183439 92 341 1.0 3.0 0.00 0.00 0.00 51 1019.5
20260902182938 90 181 1.0 2.0 0.00 0.00 0.00 52 1019.6
20260902182438 91 206 2.0 3.0 0.00 0.00 0.00 54 1019.5
20260902181938 92 229 1.0 2.0 0.00 0.00 0.00 50 1019.6
20260902181438 91 30 2.0 2.0 0.00 0.00 0.00 51 1019.7
20260902180958 92 0.0 2.0 0.00 0.00 0.00 52 1019.8
20260902180439 92 72 2.0 3.0 0.00 0.00 0.00 52 1019.8
20260902175938 91 315 1.0 3.0 0.00 0.00 0.00 51 1020.0
20260902175438 91 123 1.0 3.0 0.00 0.00 0.00 52 1020.0
20260902174938 90 259 2.0 3.0 0.00 0.00 0.00 51 1019.9
20260902174459 90 199 1.0 3.0 0.00 0.00 0.00 52 1020.0
20260902173938 90 217 2.0 3.0 0.00 0.00 0.00 53 1020.0
20260902173438 90 295 1.0 3.0 0.00 0.00 0.00 55 1020.2
20260902172938 90 197 1.0 3.0 0.00 0.00 0.00 56 1020.2
20260902172438 90 188 2.0 4.0 0.00 0.00 0.00 57 1020.1
20260902171938 90 0.0 3.0 0.00 0.00 0.00 58 1020.3
20260902171438 89 0.0 2.0 0.00 0.00 0.00 59 1020.3
20260902170939 90 216 1.0 2.0 0.00 0.00 0.00 59 1020.4
20260902170458 89 56 2.0 3.0 0.00 0.00 0.00 60 1020.3
20260902165938 89 56 2.0 2.0 0.00 0.00 0.00 58 1020.5
20260902165438 89 196 1.0 2.0 0.00 0.00 0.00 60 1020.4
20260902164938 89 0.0 2.0 0.00 0.00 0.00 61 1020.5
20260902164438 88 118 1.0 3.0 0.00 0.00 0.00 63 1020.7
20260902163958 88 183 3.0 3.0 0.00 0.00 0.00 61 1020.7
20260902163438 88 138 2.0 2.0 0.00 0.00 0.00 61 1020.8
20260902162938 89 13 2.0 4.0 0.00 0.00 0.00 63 1020.9
20260902162438 88 40 2.0 3.0 0.00 0.00 0.00 64 1021.0
20260902161938 87 50 2.0 2.0 0.00 0.00 0.00 64 1021.0
20260902161438 87 1 1.0 3.0 0.00 0.00 0.00 64 1021.0
20260902160939 88 35 2.0 4.0 0.00 0.00 0.00 63 1020.9
20260902160519 87 26 1.0 2.0 0.00 0.00 0.00 67 1021.0
20260902155939 87 0.0 3.0 0.00 0.00 0.00 66 1021.1
20260902155439 86 169 3.0 4.0 0.00 0.00 0.00 67 1021.0
20260902154959 86 46 4.0 4.0 0.00 0.00 0.00 67 1021.1
20260902154439 86 141 1.0 3.0 0.00 0.00 0.00 67 1021.1
20260902153938 86 29 1.0 2.0 0.00 0.00 0.00 68 1021.1
20260902153438 86 0.0 2.0 0.00 0.00 0.00 69 1021.1
20260902152939 85 34 2.0 3.0 0.00 0.00 0.00 69 1021.1
20260902152459 85 90 2.0 3.0 0.00 0.00 0.00 70 1021.1
20260902151939 85 110 1.0 3.0 0.00 0.00 0.00 70 1021.1
20260902151439 85 198 1.0 4.0 0.00 0.00 0.00 70 1021.1
20260902150939 85 96 2.0 2.0 0.00 0.00 0.00 71 1020.8
20260902150439 84 168 2.0 3.0 0.00 0.00 0.00 71 1021.0
20260902145939 84 0.0 2.0 0.00 0.00 0.00 72 1020.9
20260902145519 83 295 1.0 2.0 0.00 0.00 0.00 73 1020.9
20260902144958 83 300 2.0 3.0 0.00 0.00 0.00 72 1020.9
20260902144439 83 284 2.0 3.0 0.00 0.00 0.00 74 1020.8
20260902143939 83 2 1.0 2.0 0.00 0.00 0.00 74 1020.7
20260902143439 82 134 1.0 3.0 0.00 0.00 0.00 75 1020.7
20260902142938 82 347 2.0 2.0 0.00 0.00 0.00 75 1020.8
20260902142439 82 60 2.0 2.0 0.00 0.00 0.00 75 1020.8
20260902141939 82 198 1.0 2.0 0.00 0.00 0.00 77 1020.8
20260902141438 81 22 2.0 2.0 0.00 0.00 0.00 78 1020.9
20260902140939 81 81 1.0 3.0 0.00 0.00 0.00 78 1020.9
20260902140438 81 232 1.0 2.0 0.00 0.00 0.00 78 1020.9
20260902135938 80 0.0 2.0 0.00 0.00 0.00 78 1020.9
20260902135439 80 191 2.0 2.0 0.00 0.00 0.00 79 1020.7
20260902134938 79 143 1.0 2.0 0.00 0.00 0.00 80 1020.8
20260902134438 79 213 1.0 3.0 0.00 0.00 0.00 82 1020.7
20260902133938 78 82 2.0 3.0 0.00 0.00 0.00 82 1020.8
20260902133438 78 94 2.0 3.0 0.00 0.00 0.00 83 1020.9
20260902132939 78 72 1.0 2.0 0.00 0.00 0.00 84 1020.9
20260902132439 77 0.0 2.0 0.00 0.00 0.00 84 1021.0
20260902131959 77 0.0 3.0 0.00 0.00 0.00 84 1020.8
20260902131439 77 232 1.0 4.0 0.00 0.00 0.00 85 1020.9
20260902130938 76 240 2.0 3.0 0.00 0.00 0.00 86 1020.8
20260902130438 76 200 1.0 3.0 0.00 0.00 0.00 88 1020.7
20260902125939 76 266 1.0 2.0 0.00 0.00 0.00 87 1020.8
20260902125459 75 186 1.0 3.0 0.00 0.00 0.00 89 1020.7
20260902124939 74 0.0 1.0 0.00 0.00 0.00 91 1020.5
20260902124439 73 65 1.0 1.0 0.00 0.00 0.00 93 1020.6
20260902123938 72 0.0 2.0 0.00 0.00 0.00 95 1020.6
20260902123438 71 0.0 1.0 0.00 0.00 0.00 95 1020.6
20260902122939 71 0.0 1.0 0.00 0.00 0.00 95 1020.5
20260902122439 71 0.0 1.0 0.00 0.00 0.00 95 1020.6
20260902121938 70 115 1.0 1.0 0.00 0.00 0.00 95 1020.4
20260902121438 70 134 1.0 2.0 0.00 0.00 0.00 95 1020.5
20260902120958 70 0.0 2.0 0.00 0.00 0.00 95 1020.6
20260902120439 70 0.0 2.0 0.00 0.00 0.00 95 1020.5
20260902115938 70 0.0 2.0 0.00 0.00 0.00 95 1020.5
20260902115538 69 133 1.0 2.0 0.00 0.00 0.00 95 1020.4
20260902114939 69 167 1.0 2.0 0.00 0.00 0.00 95 1020.3
20260902114438 69 54 1.0 2.0 0.00 0.00 0.00 95 1020.1
20260902113938 69 149 1.0 2.0 0.00 0.00 0.00 95 1020.3
20260902113618 69 0.0 2.0 0.00 0.00 0.00 95 1020.0
20260902112938 69 98 2.0 3.0 0.00 0.00 0.00 95 1020.0
20260902112438 69 150 2.0 2.0 0.00 0.00 0.00 95 1020.0
20260902111939 69 60 1.0 2.0 0.00 0.00 0.00 95 1020.0
20260902111438 69 0.0 2.0 0.00 0.00 0.00 95 1019.9
20260902110938 69 335 1.0 2.0 0.00 0.00 0.00 95 1020.0
20260902110438 69 344 1.0 2.0 0.00 0.00 0.00 95 1019.9
20260902105939 69 278 1.0 2.0 0.00 0.00 0.00 95 1019.8
20260902105438 69 74 1.0 2.0 0.00 0.00 0.00 95 1019.8
20260902104938 69 0.0 2.0 0.00 0.00 0.00 95 1019.8
20260902104458 69 0.0 2.0 0.00 0.00 0.00 95 1019.7
20260902103959 69 163 1.0 2.0 0.00 0.00 0.00 95 1019.6
20260902103439 69 96 1.0 2.0 0.00 0.00 0.00 95 1019.8
20260902102938 68 0.0 2.0 0.00 0.00 0.00 95 1019.8
20260902102458 69 130 1.0 3.0 0.00 0.00 0.00 95 1019.8
20260902101938 69 148 1.0 2.0 0.00 0.00 0.00 95 1019.8
20260902101439 69 264 1.0 2.0 0.00 0.00 0.00 95 1019.6
20260902100940 69 356 1.0 2.0 0.00 0.00 0.00 95 1019.6
20260902100438 69 316 1.0 2.0 0.00 0.00 0.00 95 1019.4
20260902095938 69 315 2.0 2.0 0.00 0.00 0.00 95 1019.6
20260902095438 69 257 2.0 2.0 0.00 0.00 0.00 95 1019.6
20260902094939 69 353 2.0 2.0 0.00 0.00 0.00 95 1019.5
20260902094438 69 0.0 2.0 0.00 0.00 0.00 95 1019.3
20260902093938 69 267 1.0 3.0 0.00 0.00 0.00 95 1019.5
20260902093438 69 0.0 2.0 0.00 0.00 0.00 95 1019.6
20260902092938 69 77 1.0 2.0 0.00 0.00 0.00 95 1019.6
20260902092438 69 144 1.0 2.0 0.00 0.00 0.00 95 1019.6
20260902091938 69 59 1.0 2.0 0.00 0.00 0.00 95 1019.5
20260902091438 69 0.0 0.0 0.00 0.00 0.00 95 1019.5
20260902090938 69 0.0 0.0 0.00 0.00 0.00 95 1019.4
20260902090458 69 0.0 0.0 0.00 0.00 0.00 95 1019.6
20260902085938 69 0.0 0.0 0.00 0.00 0.00 95 1019.4
20260902085438 69 0.0 1.0 0.00 0.00 0.00 95 1019.3
20260902084939 69 0.0 0.0 0.00 0.00 0.00 95 1019.2
20260902084438 69 0.0 0.0 0.00 0.00 0.00 95 1019.2
20260902083938 69 0.0 0.0 0.00 0.00 0.00 95 1019.0
20260902083438 69 0.0 0.0 0.00 0.00 0.00 95 1019.1
20260902082938 69 0.0 0.0 0.00 0.00 0.00 95 1019.1
20260902082438 69 0.0 0.0 0.00 0.00 0.00 95 1019.3
20260902081938 70 0.0 0.0 0.00 0.00 0.00 95 1019.2
20260902081438 70 0.0 0.0 0.00 0.00 0.00 95 1019.1
20260902080939 69 0.0 0.0 0.00 0.00 0.00 95 1019.0
20260902080439 70 0.0 0.0 0.00 0.00 0.00 95 1019.0
20260902075939 70 0.0 0.0 0.00 0.00 0.00 95 1019.1
20260902075439 70 0.0 0.0 0.00 0.00 0.00 95 1019.1
20260902074939 70 0.0 0.0 0.00 0.00 0.00 95 1019.1
20260902074439 70 0.0 0.0 0.00 0.00 0.00 95 1019.1
20260902073959 70 0.0 0.0 0.00 0.00 0.00 95 1019.2
20260902073439 70 0.0 0.0 0.00 0.00 0.00 95 1019.2
20260902072939 70 0.0 0.0 0.00 0.00 0.00 95 1019.3
20260902072439 70 0.0 0.0 0.00 0.00 0.00 95 1019.2
20260902072019 70 0.0 0.0 0.00 0.00 0.00 95 1019.1
20260902071459 70 0.0 0.0 0.00 0.00 0.00 95 1019.1
20260902070939 70 0.0 0.0 0.00 0.00 0.00 95 1019.2
20260902070439 70 0.0 0.0 0.00 0.00 0.00 95 1019.0
20260902065939 70 0.0 0.0 0.00 0.00 0.00 95 1019.1
20260902065439 70 0.0 0.0 0.00 0.00 0.00 95 1019.1
20260902064939 70 0.0 0.0 0.00 0.00 0.00 95 1019.0
20260902064439 70 0.0 0.0 0.00 0.00 0.00 95 1019.2
20260902063939 71 0.0 0.0 0.00 0.00 0.00 95 1019.1
20260902063438 71 0.0 0.0 0.00 0.00 0.00 95 1019.2
20260902062959 71 0.0 0.0 0.00 0.00 0.00 95 1019.1
20260902062439 71 0.0 0.0 0.00 0.00 0.00 95 1019.3
20260902061939 71 0.0 0.0 0.00 0.00 0.00 95 1019.4
20260902061458 71 0.0 0.0 0.00 0.00 0.00 95 1019.4
20260902060938 71 0.0 0.0 0.00 0.00 0.00 95 1019.3
20260902060438 71 0.0 0.0 0.00 0.00 0.00 95 1019.4
20260902055939 71 0.0 0.0 0.00 0.00 0.00 95 1019.2
20260902055439 71 0.0 0.0 0.00 0.00 0.00 95 1019.2
20260902054939 71 0.0 0.0 0.00 0.00 0.00 95 1019.4
20260902054439 71 0.0 0.0 0.00 0.00 0.00 95 1019.4
20260902053939 71 0.0 0.0 0.00 0.00 0.00 95 1019.5
20260902053439 71 0.0 0.0 0.00 0.00 0.00 95 1019.4
20260902052939 71 0.0 0.0 0.00 0.00 0.00 95 1019.3
20260902052439 71 0.0 0.0 0.00 0.00 0.00 95 1019.1
20260902051939 71 0.0 0.0 0.00 0.00 0.00 95 1019.3